Skip Page Navigation
NASA JPL Caltech
NASA Logo - Jet Propulsion Laboratory + View the NASA Portal
+ Center for Near-Earth Object Studies
JPL Home Earth Solar System Stars & Galaxies Technology
JPL Solar System Dynamics
BODIES ORBITS EPHEMERIDES TOOLS PHYSICAL DATA DISCOVERY FAQ SITE MAP
IMPORTANT: The SSD Announcement email list is now available. Major changes are coming in the near future, including possible hostname and/or URL changes. To be notified of such changes, subscribe to this email list.

Please visit this page for more details.


JPL Small-Body Database Browser
Search: [ help ]  
183730 (2003 YF100)
Classification: Main-belt Asteroid          SPK-ID: 2183730
Ephemeris | Orbit Diagram | Orbital Elements | Mission Design | Physical Parameters | Discovery Circumstances | Close-Approach Data ]

[ hide orbit diagram ]
Orbit Diagram
[ switch to new HTML5 viewer ]

Note: This Java-based orbit viewer will eventually be retired.

Note: Make sure you have Java enabled on your browser to see the applet. This applet is provided as a 3D orbit visualization tool. The applet was implemented using two-body methods, and hence should not be used for determining accurate long-term trajectories (over several years or decades) or planetary encounter circumstances. For accurate long-term ephemerides, please instead use our Horizons system.

Note: If the applet is not working, here are some notes that might help.
Orbit Viewer

Additional Notes: the orbits shown in the applet are color coded. The planets are white lines, and the asteroid/comet is a blue line. The bright white line indicates the portion of the orbit that is above the ecliptic plane, and the darker portion is below the ecliptic plane. Likewise for the asteroid/comet orbit, the light blue indicates the portion above the ecliptic plane, and the dark blue the portion below the ecliptic plane.

Orbit Viewer applet originally written and kindly provided by Osamu Ajiki (AstroArts), and further modified by Ron Baalke (JPL).


Orbital Elements at Epoch 2459000.5 (2020-May-31.0) TDB
Reference: JPL 11 (heliocentric ecliptic J2000)
 Element Value Uncertainty (1-sigma)   Units 
e .09873844128622511 8.0566e-08  
a 2.312774963559281 1.9372e-08 au
q 2.084415168611632 1.8458e-07 au
i 3.41177473665231 7.0279e-06 deg
node 129.1028642864381 0.00014392 deg
peri 20.74965170936535 0.00014952 deg
M 199.2556628976428 4.0705e-05 deg
tp 2459574.129759465964
(2021-Dec-25.62975947)
0.00014692 TDB
period 1284.690441544139
3.52
1.6141e-05
4.419e-08
d
yr
n .2802231482062688 3.5207e-09 deg/d
Q 2.541134758506931 2.1285e-08 au
  Orbit Determination Parameters
   # obs. used (total)      240  
   data-arc span      7682 days (21.03 yr)  
   first obs. used      1997-01-11  
   last obs. used      2018-01-23  
   planetary ephem.      DE431  
   SB-pert. ephem.      SB431-N16  
   condition code      0  
   norm. resid. RMS      .63613  
   source      ORB  
   producer      Otto Matic  
   solution date      2018-Feb-06 07:57:59  

Additional Information
 Earth MOID = 1.09596 au 
 Jupiter MOID = 2.44854 au 
 T_jup = 3.574 
[ show covariance matrix ]

Ephemeris | Orbit Diagram | Orbital Elements | Mission Design | Physical Parameters | Discovery Circumstances | Close-Approach Data ]

Physical Parameter Table
Parameter Symbol Value Units Sigma Reference Notes
absolute magnitude H 16.9   n/a MPO433202  

183730 (2003 YF100)          Discovered 2003-Dec-19 by LINEAR at Socorro
Reference: 20080420/Numbers.arcLast Updated: 2008-04-23

[ hide close-approach data ]
Close-Approach Data   ...sorted by Date/Time (TDB)
Date/Time (TDB) Time Uncertainty
(days_HH:MM)
Body Nominal Distance (au) Minimum Distance (au) Maximum Distance (au) V-relative (km/s) V-infinity (km/s) JD (TDB) Time Uncertainty (minutes) Semi-major axis (km) Semi-minor axis (km) range-LOV angle (deg) N-sigma BP Orbit Ref. Reference Modified
1949-Dec-03 19:11 00:04 Amphi 0.0467183033586873 0.0467058783193829 0.0467307305492294 3.30098868730591 3.30098865002882 2433254.299416378 4.21596680707741 797.345499640572 64.1969181147396 -39.1994675033252 69088.1305178202 T 11 CATAB v2.0e-lin.ifort 2018-Feb-06 07:58:01 2018-Dec-17 20:01

Alternate Designations
 2003 YF100 = 2006 SP160 
Ephemeris | Orbit Diagram | Orbital Elements | Mission Design | Physical Parameters | Discovery Circumstances | Close-Approach Data ]
ABOUT SSD CREDITS/AWARDS PRIVACY/COPYRIGHT GLOSSARY LINKS
FirstGov 2020-Jun-03 01:44 UT
(server date/time)  
NASA Home Page
Site Manager:   Ryan S. Park
Webmaster  Alan B. Chamberlin